QPF
0.00 0.00 0.00 0.00 0.00 0.00 0.00 0.00 0.00 0.00 0.00 0.00 0.00 0.00 0.00 0.00 0.00 0.00 0.00 0.00 0.00 0.00 0.00 0.00 0.00 0.00 0.00 0.00 0.00 0.00 0.00 0.00 0.00 0.00 0.00 0.00 0.00 0.00 0.00 0.00 0.00 0.00 0.00 0.00
0.00 0.00 0.00 0.00 0.00 0.00 0.00 0.00 0.00 0.00 0.00 0.00 0.00 0.00 0.00 0.00 0.00 0.00 0.00 0.00 0.00 0.00 0.00 0.00 0.00 0.00 0.00 0.00 0.00 0.00 0.00 0.00 0.00 0.00 0.00 0.00 0.00 0.00 0.00 0.00 0.00 0.00 0.00 0.00
0.00 0.00 0.00 0.00 0.00 0.00 0.00 0.00 0.00 0.00 0.00 0.00 0.00 0.00 0.00 0.00 0.00 0.00 0.00 0.00 0.00 0.00 0.00 0.00 0.00 0.00 0.00 0.00 0.00 0.00 0.00 0.00 0.00 0.00 0.00 0.00 0.00 0.00 0.00 0.00 0.00 0.00 0.00 0.00
0.00 0.00 0.00 0.00 0.00 0.00 0.00 0.00 0.00 0.00 0.00 0.00 0.00 0.00 0.00 0.00 0.00 0.00 0.00 0.00 0.00 0.00 0.00 0.00 0.00 0.00 0.00 0.00 0.00 0.00 0.00 0.00 0.00 0.00 0.00 0.00 0.00 0.00 0.00 0.00 0.00 0.00 0.00 0.00
0.00 0.00 0.00 0.00 0.00 0.00 0.00 0.00 0.00 0.00 0.00 0.00 0.00 0.00 0.00 0.00 0.00 0.00 0.00 0.00 0.00 0.00 0.00 0.00 0.00 0.00 0.00 0.00 0.00 0.00 0.00 0.00 0.00 0.00 0.00 0.00 0.00 0.00 0.00 0.00 0.00 0.00 0.00 0.00
0.00 0.00 0.00 0.00 0.00 0.00 0.00 0.00 0.00 0.00 0.00 0.00 0.00 0.00 0.00 0.00 0.00 0.00 0.00 0.00 0.00 0.00 0.00 0.00 0.00 0.00 0.00 0.00 0.00 0.00 0.00 0.00 0.00 0.00 0.00 0.00 0.00 0.00 0.00 0.00 0.00 0.00 0.00 0.00
0.00 0.00 0.00 0.00 0.00 0.00 0.00 0.00 0.00 0.00 0.00 0.00 0.00 0.00 0.00 0.00 0.00 0.00 0.00 0.00 0.00 0.00 0.00 0.00 0.00 0.00 0.00 0.00 0.00 0.00 0.00 0.00 0.00 0.00 0.00 0.00 0.00 0.01 0.00 0.00 0.00 0.00 0.00 0.01
0.00 0.00 0.00 0.00 0.00 0.00 0.00 0.00 0.00 0.00 0.00 0.00 0.00 0.00 0.00 0.00 0.00 0.00 0.00 0.00 0.00 0.00 0.00 0.00 0.00 0.00 0.00 0.00 0.00 0.00 0.00 0.00 0.00 0.00 0.00 0.00 0.00 0.00 0.00 0.00 0.00 0.00 0.01 0.01
0.00 0.00 0.00 0.00 0.00 0.00 0.00 0.00 0.00 0.00 0.00 0.00 0.00 0.00 0.00 0.00 0.00 0.00 0.00 0.00 0.00 0.00 0.00 0.00 0.00 0.00 0.00 0.00 0.00 0.00 0.00 0.00 0.00 0.00 0.00 0.00 0.00 0.00 0.00 0.01 0.01 0.01 0.01 0.01
0.00 0.00 0.00 0.00 0.00 0.00 0.00 0.00 0.00 0.00 0.00 0.00 0.00 0.00 0.00 0.00 0.00 0.00 0.00 0.00 0.00 0.00 0.00 0.00 0.00 0.00 0.00 0.00 0.00 0.00 0.00 0.00 0.00 0.00 0.00 0.00 0.01 0.01 0.01 0.01 0.01 0.01 0.01 0.01
0.00 0.00 0.00 0.00 0.00 0.00 0.00 0.00 0.00 0.00 0.00 0.00 0.00 0.00 0.00 0.00 0.00 0.00 0.00 0.00 0.00 0.00 0.00 0.00 0.00 0.00 0.00 0.00 0.00 0.00 0.00 0.00 0.00 0.00 0.00 0.00 0.01 0.01 0.01 0.01 0.01 0.01 0.01 0.01
0.00 0.00 0.00 0.00 0.00 0.00 0.00 0.00 0.00 0.00 0.00 0.00 0.00 0.00 0.00 0.00 0.00 0.00 0.00 0.00 0.00 0.00 0.00 0.00 0.00 0.00 0.00 0.00 0.00 0.00 0.00 0.00 0.00 0.00 0.00 0.01 0.01 0.01 0.01 0.01 0.01 0.01 0.01 0.01
0.00 0.00 0.00 0.00 0.00 0.00 0.00 0.00 0.00 0.00 0.00 0.00 0.00 0.00 0.00 0.00 0.00 0.00 0.00 0.00 0.00 0.00 0.00 0.00 0.00 0.00 0.00 0.00 0.00 0.00 0.00 0.00 0.00 0.00 0.00 0.01 0.01 0.01 0.01 0.01 0.01 0.01 0.01 0.01
0.00 0.00 0.00 0.00 0.00 0.00 0.00 0.00 0.00 0.00 0.00 0.00 0.00 0.00 0.00 0.00 0.00 0.00 0.00 0.00 0.00 0.00 0.00 0.00 0.00 0.00 0.00 0.00 0.00 0.00 0.00 0.00 0.00 0.00 0.00 0.01 0.01 0.01 0.02 0.02 0.02 0.01 0.01 0.00
0.00 0.00 0.00 0.00 0.00 0.00 0.00 0.00 0.00 0.00 0.00 0.00 0.00 0.00 0.00 0.00 0.00 0.00 0.00 0.00 0.00 0.00 0.00 0.00 0.00 0.00 0.00 0.00 0.00 0.00 0.00 0.00 0.00 0.00 0.00 0.01 0.01 0.02 0.02 0.02 0.02 0.01 0.01 0.01
0.00 0.00 0.00 0.00 0.00 0.00 0.00 0.00 0.00 0.00 0.00 0.00 0.00 0.00 0.00 0.00 0.00 0.00 0.00 0.00 0.00 0.00 0.00 0.00 0.00 0.00 0.00 0.00 0.00 0.00 0.00 0.00 0.00 0.00 0.00 0.01 0.02 0.02 0.01 0.01 0.01 0.01 0.01 0.01
0.00 0.00 0.00 0.00 0.00 0.00 0.00 0.00 0.00 0.00 0.00 0.00 0.00 0.00 0.00 0.00 0.01 0.01 0.00 0.00 0.00 0.00 0.00 0.00 0.00 0.00 0.00 0.00 0.00 0.00 0.00 0.00 0.00 0.00 0.01 0.01 0.02 0.02 0.01 0.01 0.01 0.01 0.02 0.01
0.00 0.00 0.00 0.00 0.00 0.00 0.00 0.00 0.00 0.00 0.01 0.01 0.01 0.01 0.01 0.01 0.01 0.01 0.00 0.00 0.00 0.00 0.00 0.00 0.00 0.00 0.00 0.00 0.00 0.00 0.00 0.00 0.00 0.00 0.01 0.01 0.01 0.01 0.01 0.01 0.01 0.02 0.02 0.02
0.01 0.01 0.01 0.01 0.01 0.01 0.01 0.00 0.00 0.01 0.01 0.01 0.01 0.01 0.01 0.01 0.01 0.00 0.00 0.00 0.00 0.00 0.00 0.00 0.00 0.00 0.00 0.00 0.00 0.00 0.00 0.00 0.00 0.00 0.01 0.01 0.01 0.01 0.01 0.01 0.01 0.02 0.02 0.02
0.01 0.01 0.01 0.01 0.01 0.00 0.00 0.00 0.01 0.01 0.01 0.01 0.01 0.01 0.01 0.00 0.00 0.00 0.00 0.00 0.00 0.00 0.00 0.00 0.00 0.00 0.00 0.00 0.00 0.00 0.00 0.00 0.00 0.00 0.01 0.01 0.01 0.02 0.01 0.01 0.01 0.02 0.02 0.03
0.00 0.00 0.00 0.00 0.00 0.00 0.00 0.00 0.00 0.01 0.01 0.00 0.00 0.00 0.00 0.00 0.00 0.00 0.00 0.00 0.01 0.01 0.01 0.01 0.01 0.00 0.00 0.00 0.00 0.00 0.00 0.00 0.00 0.00 0.00 0.01 0.01 0.01 0.01 0.01 0.02 0.02 0.02 0.04
0.00 0.00 0.00 0.00 0.00 0.00 0.00 0.00 0.00 0.00 0.00 0.00 0.00 0.00 0.00 0.00 0.00 0.00 0.00 0.01 0.01 0.01 0.01 0.01 0.01 0.01 0.00 0.00 0.00 0.00 0.00 0.00 0.00 0.00 0.00 0.00 0.01 0.01 0.01 0.02 0.02 0.03 0.03 0.05
0.00 0.00 0.00 0.00 0.00 0.00 0.00 0.00 0.00 0.00 0.00 0.00 0.00 0.00 0.00 0.00 0.00 0.01 0.01 0.01 0.02 0.03 0.03 0.03 0.02 0.01 0.01 0.00 0.00 0.00 0.00 0.00 0.00 0.00 0.00 0.00 0.01 0.01 0.01 0.02 0.02 0.03 0.04 0.06
0.00 0.00 0.00 0.00 0.00 0.00 0.00 0.00 0.00 0.00 0.00 0.00 0.00 0.00 0.00 0.01 0.01 0.02 0.02 0.04 0.06 0.07 0.06 0.04 0.03 0.02 0.01 0.00 0.00 0.00 0.00 0.00 0.00 0.00 0.00 0.00 0.01 0.01 0.01 0.02 0.03 0.03 0.04 0.06
0.00 0.00 0.00 0.00 0.00 0.00 0.00 0.00 0.00 0.00 0.00 0.00 0.00 0.00 0.01 0.02 0.03 0.05 0.07 0.10 0.12 0.12 0.09 0.06 0.03 0.01 0.01 0.00 0.00 0.00 0.00 0.00 0.00 0.00 0.00 0.01 0.01 0.01 0.01 0.02 0.04 0.03 0.04 0.05
0.00 0.00 0.00 0.00 0.00 0.00 0.00 0.00 0.00 0.00 0.00 0.01 0.01 0.01 0.02 0.04 0.08 0.12 0.16 0.18 0.18 0.16 0.12 0.06 0.03 0.01 0.01 0.00 0.00 0.00 0.00 0.00 0.00 0.00 0.00 0.00 0.01 0.01 0.02 0.04 0.05 0.04 0.03 0.03
0.00 0.00 0.00 0.00 0.00 0.00 0.00 0.00 0.00 0.01 0.01 0.02 0.02 0.03 0.05 0.10 0.13 0.16 0.18 0.18 0.17 0.15 0.11 0.06 0.03 0.01 0.01 0.00 0.00 0.00 0.00 0.00 0.00 0.00 0.00 0.00 0.00 0.01 0.01 0.03 0.04 0.04 0.02 0.02
MSLP
1013.00 1013.12 1013.30 1013.55 1013.86 1014.18 1014.47 1014.70 1014.83 1014.84 1014.75 1014.57 1014.35 1014.12 1013.92 1013.78 1013.71 1013.69 1013.72 1013.75 1013.75 1013.71 1013.61 1013.44 1013.23 1012.99 1012.74 1012.49 1012.28 1012.09 1011.92 1011.76 1011.61 1011.44 1011.25 1011.04 1010.82 1010.58 1010.34 1010.11 1009.89 1009.69 1009.49 1009.31
1013.14 1013.25 1013.35 1013.45 1013.56 1013.67 1013.76 1013.83 1013.86 1013.86 1013.82 1013.77 1013.71 1013.67 1013.64 1013.64 1013.66 1013.67 1013.68 1013.64 1013.56 1013.43 1013.24 1013.02 1012.78 1012.53 1012.29 1012.08 1011.89 1011.73 1011.57 1011.40 1011.22 1011.01 1010.78 1010.52 1010.24 1009.95 1009.68 1009.42 1009.18 1008.96 1008.77 1008.59
1013.33 1013.39 1013.40 1013.36 1013.29 1013.22 1013.15 1013.09 1013.04 1013.03 1013.04 1013.08 1013.15 1013.25 1013.35 1013.45 1013.52 1013.54 1013.51 1013.42 1013.26 1013.04 1012.79 1012.53 1012.26 1012.02 1011.81 1011.63 1011.48 1011.34 1011.20 1011.03 1010.84 1010.60 1010.32 1010.01 1009.69 1009.36 1009.04 1008.75 1008.48 1008.24 1008.03 1007.84
1013.56 1013.54 1013.43 1013.26 1013.05 1012.83 1012.63 1012.47 1012.37 1012.34 1012.39 1012.50 1012.65 1012.84 1013.02 1013.17 1013.26 1013.27 1013.21 1013.05 1012.83 1012.56 1012.26 1011.97 1011.71 1011.48 1011.31 1011.17 1011.06 1010.95 1010.83 1010.67 1010.47 1010.21 1009.90 1009.56 1009.19 1008.82 1008.46 1008.12 1007.82 1007.54 1007.30 1007.07
1013.75 1013.61 1013.38 1013.08 1012.75 1012.41 1012.12 1011.90 1011.76 1011.73 1011.79 1011.94 1012.15 1012.38 1012.60 1012.77 1012.87 1012.86 1012.76 1012.57 1012.31 1012.01 1011.69 1011.40 1011.15 1010.96 1010.82 1010.73 1010.66 1010.59 1010.49 1010.34 1010.13 1009.86 1009.53 1009.15 1008.75 1008.34 1007.94 1007.56 1007.21 1006.89 1006.59 1006.32
1013.80 1013.51 1013.15 1012.72 1012.29 1011.87 1011.52 1011.26 1011.12 1011.09 1011.17 1011.35 1011.59 1011.84 1012.08 1012.26 1012.35 1012.33 1012.22 1012.01 1011.74 1011.44 1011.14 1010.87 1010.65 1010.50 1010.40 1010.35 1010.31 1010.26 1010.17 1010.03 1009.82 1009.53 1009.18 1008.78 1008.34 1007.90 1007.46 1007.03 1006.64 1006.27 1005.92 1005.60
1013.55 1013.11 1012.61 1012.09 1011.57 1011.11 1010.74 1010.47 1010.34 1010.33 1010.44 1010.65 1010.91 1011.19 1011.44 1011.62 1011.72 1011.72 1011.61 1011.42 1011.18 1010.91 1010.64 1010.42 1010.25 1010.13 1010.07 1010.04 1010.02 1009.98 1009.89 1009.74 1009.51 1009.20 1008.83 1008.40 1007.93 1007.46 1006.98 1006.53 1006.09 1005.68 1005.30 1004.93
1012.93 1012.34 1011.72 1011.11 1010.55 1010.08 1009.71 1009.47 1009.37 1009.41 1009.56 1009.80 1010.10 1010.41 1010.68 1010.90 1011.02 1011.05 1010.99 1010.85 1010.66 1010.45 1010.25 1010.08 1009.95 1009.87 1009.83 1009.81 1009.79 1009.73 1009.62 1009.44 1009.18 1008.84 1008.44 1007.98 1007.49 1006.98 1006.49 1006.00 1005.55 1005.12 1004.71 1004.32
1011.90 1011.19 1010.48 1009.82 1009.24 1008.78 1008.45 1008.26 1008.22 1008.32 1008.53 1008.83 1009.17 1009.52 1009.84 1010.10 1010.29 1010.38 1010.39 1010.33 1010.22 1010.08 1009.95 1009.84 1009.76 1009.71 1009.67 1009.64 1009.59 1009.49 1009.34 1009.11 1008.80 1008.42 1007.98 1007.49 1006.97 1006.45 1005.94 1005.45 1004.99 1004.56 1004.16 1003.78
1010.55 1009.75 1008.99 1008.30 1007.74 1007.31 1007.04 1006.93 1006.96 1007.13 1007.41 1007.76 1008.16 1008.57 1008.95 1009.28 1009.53 1009.71 1009.81 1009.84 1009.83 1009.79 1009.73 1009.68 1009.63 1009.59 1009.55 1009.49 1009.39 1009.24 1009.02 1008.73 1008.36 1007.93 1007.44 1006.92 1006.38 1005.85 1005.33 1004.85 1004.40 1004.00 1003.63 1003.30
1009.03 1008.19 1007.42 1006.75 1006.22 1005.85 1005.65 1005.60 1005.71 1005.95 1006.29 1006.70 1007.16 1007.62 1008.05 1008.45 1008.78 1009.04 1009.24 1009.38 1009.46 1009.51 1009.53 1009.53 1009.51 1009.48 1009.41 1009.31 1009.16 1008.94 1008.65 1008.29 1007.86 1007.38 1006.85 1006.29 1005.74 1005.20 1004.69 1004.22 1003.81 1003.44 1003.13 1002.86
1007.59 1006.75 1005.99 1005.37 1004.89 1004.59 1004.45 1004.47 1004.63 1004.92 1005.30 1005.75 1006.24 1006.73 1007.20 1007.65 1008.04 1008.38 1008.66 1008.88 1009.06 1009.18 1009.27 1009.32 1009.33 1009.30 1009.21 1009.07 1008.86 1008.58 1008.23 1007.81 1007.33 1006.79 1006.23 1005.65 1005.08 1004.54 1004.04 1003.60 1003.22 1002.90 1002.64 1002.44
1006.43 1005.63 1004.92 1004.35 1003.94 1003.69 1003.61 1003.67 1003.87 1004.17 1004.56 1005.00 1005.48 1005.97 1006.45 1006.90 1007.33 1007.71 1008.05 1008.34 1008.58 1008.77 1008.91 1009.00 1009.04 1009.01 1008.91 1008.75 1008.50 1008.18 1007.78 1007.32 1006.80 1006.23 1005.64 1005.05 1004.48 1003.94 1003.45 1003.02 1002.67 1002.39 1002.18 1002.03
1005.72 1004.98 1004.35 1003.84 1003.49 1003.29 1003.24 1003.31 1003.50 1003.78 1004.13 1004.52 1004.94 1005.38 1005.82 1006.24 1006.65 1007.04 1007.40 1007.72 1008.00 1008.24 1008.42 1008.55 1008.61 1008.60 1008.52 1008.35 1008.09 1007.75 1007.34 1006.85 1006.31 1005.74 1005.14 1004.54 1003.97 1003.43 1002.95 1002.53 1002.19 1001.93 1001.74 1001.62
1005.53 1004.87 1004.32 1003.88 1003.58 1003.41 1003.36 1003.42 1003.57 1003.78 1004.04 1004.34 1004.66 1005.00 1005.34 1005.69 1006.04 1006.39 1006.72 1007.04 1007.34 1007.60 1007.82 1007.98 1008.08 1008.10 1008.04 1007.89 1007.65 1007.32 1006.92 1006.44 1005.91 1005.34 1004.75 1004.16 1003.58 1003.05 1002.57 1002.15 1001.81 1001.54 1001.34 1001.21
1005.82 1005.26 1004.78 1004.41 1004.15 1004.00 1003.94 1003.95 1004.02 1004.14 1004.28 1004.45 1004.63 1004.82 1005.03 1005.26 1005.51 1005.77 1006.05 1006.34 1006.62 1006.89 1007.13 1007.33 1007.47 1007.53 1007.52 1007.41 1007.21 1006.93 1006.55 1006.11 1005.61 1005.06 1004.48 1003.90 1003.34 1002.80 1002.31 1001.88 1001.52 1001.22 1001.00 1000.83
1006.50 1006.02 1005.62 1005.31 1005.08 1004.92 1004.83 1004.78 1004.76 1004.76 1004.76 1004.77 1004.79 1004.82 1004.87 1004.95 1005.07 1005.23 1005.43 1005.66 1005.91 1006.18 1006.43 1006.65 1006.84 1006.95 1007.00 1006.95 1006.81 1006.58 1006.26 1005.86 1005.39 1004.88 1004.33 1003.76 1003.20 1002.67 1002.16 1001.71 1001.32 1000.99 1000.72 1000.50
1007.40 1006.99 1006.66 1006.38 1006.17 1006.01 1005.88 1005.76 1005.64 1005.52 1005.38 1005.23 1005.08 1004.93 1004.82 1004.74 1004.72 1004.76 1004.87 1005.03 1005.24 1005.49 1005.75 1006.01 1006.23 1006.41 1006.51 1006.53 1006.45 1006.28 1006.02 1005.67 1005.25 1004.76 1004.24 1003.69 1003.14 1002.60 1002.09 1001.62 1001.20 1000.83 1000.51 1000.25
1008.34 1008.00 1007.70 1007.46 1007.25 1007.07 1006.90 1006.71 1006.50 1006.26 1005.99 1005.69 1005.39 1005.08 1004.81 1004.59 1004.44 1004.36 1004.37 1004.47 1004.64 1004.88 1005.14 1005.42 1005.69 1005.92 1006.08 1006.16 1006.15 1006.04 1005.83 1005.52 1005.14 1004.69 1004.18 1003.65 1003.11 1002.58 1002.06 1001.58 1001.14 1000.75 1000.40 1000.09
1009.19 1008.88 1008.61 1008.37 1008.16 1007.96 1007.74 1007.49 1007.20 1006.86 1006.48 1006.06 1005.62 1005.19 1004.79 1004.44 1004.18 1004.00 1003.94 1003.98 1004.11 1004.33 1004.61 1004.91 1005.21 1005.49 1005.71 1005.85 1005.89 1005.83 1005.66 1005.40 1005.04 1004.61 1004.13 1003.62 1003.09 1002.56 1002.05 1001.58 1001.14 1000.73 1000.37 1000.04
1009.84 1009.54 1009.27 1009.03 1008.80 1008.57 1008.30 1008.00 1007.65 1007.23 1006.76 1006.25 1005.72 1005.18 1004.68 1004.25 1003.89 1003.65 1003.52 1003.52 1003.63 1003.84 1004.13 1004.46 1004.80 1005.12 1005.38 1005.57 1005.66 1005.64 1005.51 1005.27 1004.95 1004.54 1004.08 1003.58 1003.06 1002.55 1002.06 1001.60 1001.18 1000.79 1000.43 1000.10
1010.25 1009.94 1009.66 1009.39 1009.14 1008.87 1008.57 1008.22 1007.81 1007.34 1006.81 1006.23 1005.63 1005.03 1004.47 1003.97 1003.56 1003.27 1003.11 1003.08 1003.18 1003.40 1003.70 1004.05 1004.42 1004.78 1005.09 1005.32 1005.45 1005.47 1005.37 1005.16 1004.86 1004.47 1004.03 1003.55 1003.05 1002.57 1002.11 1001.67 1001.28 1000.91 1000.58 1000.27
1010.42 1010.09 1009.78 1009.49 1009.20 1008.89 1008.55 1008.16 1007.71 1007.20 1006.64 1006.02 1005.39 1004.75 1004.15 1003.63 1003.19 1002.88 1002.70 1002.66 1002.77 1002.99 1003.30 1003.68 1004.08 1004.48 1004.82 1005.09 1005.26 1005.31 1005.25 1005.08 1004.80 1004.44 1004.02 1003.56 1003.10 1002.64 1002.21 1001.81 1001.45 1001.12 1000.82 1000.54
1010.39 1010.03 1009.69 1009.36 1009.03 1008.69 1008.32 1007.91 1007.43 1006.90 1006.31 1005.69 1005.04 1004.40 1003.79 1003.26 1002.82 1002.50 1002.32 1002.29 1002.40 1002.63 1002.97 1003.37 1003.80 1004.22 1004.60 1004.91 1005.12 1005.21 1005.18 1005.04 1004.80 1004.48 1004.09 1003.66 1003.23 1002.80 1002.40 1002.04 1001.70 1001.40 1001.14 1000.88
1010.20 1009.81 1009.44 1009.09 1008.74 1008.37 1007.98 1007.54 1007.06 1006.52 1005.93 1005.31 1004.68 1004.05 1003.46 1002.94 1002.52 1002.21 1002.05 1002.02 1002.14 1002.39 1002.73 1003.15 1003.60 1004.05 1004.46 1004.80 1005.04 1005.18 1005.20 1005.10 1004.90 1004.61 1004.26 1003.88 1003.48 1003.08 1002.71 1002.36 1002.05 1001.78 1001.52 1001.28
1009.88 1009.48 1009.11 1008.74 1008.37 1007.99 1007.59 1007.16 1006.68 1006.16 1005.59 1005.00 1004.39 1003.80 1003.25 1002.76 1002.37 1002.09 1001.94 1001.93 1002.06 1002.31 1002.66 1003.08 1003.54 1004.00 1004.43 1004.80 1005.08 1005.25 1005.31 1005.26 1005.11 1004.87 1004.57 1004.22 1003.85 1003.48 1003.13 1002.80 1002.49 1002.22 1001.97 1001.73
1009.48 1009.09 1008.72 1008.36 1008.00 1007.62 1007.24 1006.82 1006.36 1005.88 1005.35 1004.81 1004.26 1003.72 1003.22 1002.78 1002.43 1002.19 1002.07 1002.07 1002.21 1002.45 1002.80 1003.21 1003.67 1004.13 1004.57 1004.95 1005.25 1005.45 1005.55 1005.54 1005.43 1005.24 1004.98 1004.67 1004.33 1003.99 1003.64 1003.32 1003.01 1002.73 1002.47 1002.22
Thickness
5745 5753 5757 5755 5754 5748 5735 5723 5709 5710 5706 5709 5712 5712 5712 5709 5705 5700 5695 5692 5688 5680 5674 5669 5664 5659 5654 5648 5643 5637 5630 5623 5617 5611 5605 5599 5593 5588 5584 5580 5577 5573 5570 5566
5738 5752 5753 5751 5757 5753 5746 5740 5727 5717 5712 5722 5721 5717 5713 5708 5702 5697 5694 5691 5687 5681 5674 5667 5662 5656 5651 5645 5639 5633 5626 5619 5613 5606 5599 5593 5588 5583 5578 5574 5570 5566 5562 5559
5719 5734 5739 5731 5750 5751 5746 5747 5735 5718 5719 5723 5716 5713 5709 5705 5701 5697 5694 5690 5684 5678 5671 5665 5660 5655 5648 5642 5636 5629 5622 5615 5608 5601 5594 5588 5583 5577 5572 5568 5564 5559 5555 5551
5714 5717 5712 5729 5761 5761 5747 5743 5742 5732 5726 5723 5717 5713 5709 5706 5702 5698 5694 5689 5683 5675 5669 5664 5658 5652 5646 5639 5632 5625 5617 5610 5603 5596 5589 5583 5576 5571 5566 5562 5557 5553 5549 5545
5706 5705 5713 5737 5756 5754 5738 5727 5736 5728 5724 5719 5712 5707 5704 5708 5705 5698 5694 5688 5680 5675 5669 5662 5656 5650 5643 5635 5627 5620 5613 5605 5598 5591 5584 5578 5572 5567 5562 5557 5552 5548 5544 5540
5709 5704 5700 5728 5757 5762 5741 5717 5735 5731 5725 5719 5708 5692 5695 5706 5704 5698 5693 5686 5679 5673 5667 5660 5653 5646 5638 5630 5623 5615 5609 5601 5594 5586 5579 5573 5568 5563 5558 5553 5548 5544 5540 5535
5708 5702 5714 5745 5762 5756 5719 5718 5737 5734 5728 5721 5709 5704 5707 5707 5701 5696 5691 5685 5678 5671 5662 5656 5650 5642 5634 5626 5618 5612 5605 5597 5589 5582 5575 5569 5564 5559 5554 5549 5544 5539 5535 5531
5706 5700 5712 5754 5755 5738 5735 5745 5741 5736 5731 5724 5718 5715 5709 5703 5697 5692 5686 5682 5676 5666 5658 5652 5646 5638 5629 5621 5616 5608 5600 5592 5585 5578 5571 5567 5560 5555 5550 5544 5539 5535 5529 5525
5720 5723 5746 5756 5756 5759 5754 5745 5743 5737 5733 5727 5718 5713 5708 5701 5695 5690 5684 5677 5670 5662 5654 5647 5641 5633 5625 5619 5612 5603 5595 5587 5580 5574 5568 5562 5556 5551 5547 5541 5535 5531 5525 5520
5732 5740 5752 5757 5760 5761 5756 5751 5749 5744 5737 5729 5721 5714 5707 5698 5691 5685 5679 5672 5665 5657 5649 5642 5636 5629 5622 5616 5608 5599 5590 5583 5577 5571 5566 5560 5554 5548 5543 5539 5533 5528 5523 5518
5728 5740 5750 5758 5759 5760 5757 5754 5749 5744 5739 5732 5724 5714 5705 5696 5689 5681 5675 5668 5660 5652 5644 5638 5632 5625 5619 5612 5604 5595 5586 5580 5574 5569 5563 5558 5553 5547 5543 5538 5532 5527 5523 5517
5724 5741 5738 5744 5757 5760 5754 5750 5747 5741 5735 5731 5725 5715 5706 5696 5688 5680 5672 5664 5656 5648 5641 5635 5628 5621 5615 5608 5600 5591 5583 5577 5572 5567 5562 5556 5551 5548 5545 5539 5535 5530 5524 5518
5743 5750 5748 5753 5757 5758 5754 5751 5747 5741 5735 5728 5722 5716 5706 5694 5685 5677 5668 5660 5653 5645 5638 5631 5624 5617 5611 5603 5596 5588 5580 5575 5570 5565 5559 5555 5550 5545 5542 5541 5537 5532 5527 5521
5751 5751 5748 5750 5749 5752 5752 5751 5746 5740 5734 5728 5720 5712 5702 5692 5681 5672 5664 5658 5650 5642 5635 5628 5621 5614 5608 5600 5592 5584 5578 5574 5569 5563 5558 5553 5549 5545 5541 5537 5534 5531 5528 5523
5745 5745 5741 5743 5743 5743 5744 5741 5734 5727 5723 5718 5712 5705 5696 5686 5676 5668 5661 5654 5645 5637 5630 5623 5616 5610 5603 5595 5588 5581 5575 5570 5566 5561 5557 5553 5549 5546 5542 5538 5535 5531 5527 5524
5732 5731 5729 5727 5724 5725 5725 5724 5719 5715 5713 5709 5703 5697 5691 5682 5673 5664 5656 5648 5639 5631 5625 5618 5612 5606 5598 5591 5584 5577 5571 5569 5566 5560 5557 5553 5549 5546 5543 5539 5536 5532 5528 5524
5710 5705 5703 5701 5702 5702 5702 5703 5703 5704 5703 5700 5696 5691 5682 5672 5663 5655 5648 5642 5637 5630 5622 5615 5608 5600 5593 5587 5580 5573 5568 5564 5563 5559 5555 5552 5549 5546 5543 5540 5536 5533 5530 5527
5688 5685 5684 5683 5683 5683 5685 5686 5687 5687 5687 5688 5685 5677 5668 5660 5653 5648 5643 5637 5630 5624 5617 5610 5602 5594 5588 5581 5575 5569 5563 5559 5557 5555 5553 5550 5548 5546 5544 5541 5537 5535 5532 5529
5671 5670 5669 5668 5667 5666 5666 5666 5667 5668 5668 5667 5663 5658 5654 5651 5646 5642 5636 5628 5621 5615 5610 5603 5597 5588 5582 5575 5570 5563 5559 5557 5555 5553 5551 5549 5547 5545 5543 5540 5538 5535 5532 5529
5655 5655 5654 5654 5653 5652 5651 5650 5649 5649 5648 5645 5642 5640 5638 5637 5635 5632 5626 5621 5617 5611 5606 5597 5589 5581 5575 5569 5565 5558 5554 5553 5551 5549 5547 5545 5544 5543 5542 5540 5538 5536 5533 5530
5636 5636 5636 5636 5635 5635 5633 5632 5630 5630 5630 5627 5624 5623 5624 5626 5624 5621 5615 5611 5610 5604 5597 5590 5581 5573 5567 5562 5558 5553 5550 5549 5547 5544 5543 5541 5540 5540 5540 5539 5538 5536 5534 5531
5615 5615 5616 5616 5615 5615 5615 5614 5613 5613 5613 5612 5612 5611 5611 5611 5611 5609 5608 5605 5602 5594 5587 5579 5572 5566 5561 5556 5552 5548 5546 5544 5542 5540 5538 5537 5537 5537 5538 5538 5537 5536 5535 5533
5594 5595 5595 5595 5595 5595 5596 5596 5596 5596 5596 5596 5596 5596 5597 5599 5600 5597 5596 5596 5590 5583 5577 5570 5564 5559 5555 5550 5546 5543 5540 5538 5536 5535 5533 5533 5533 5534 5535 5536 5536 5536 5535 5534
5576 5576 5576 5577 5577 5576 5577 5578 5579 5579 5579 5580 5581 5582 5583 5585 5587 5588 5588 5586 5579 5572 5566 5560 5556 5552 5547 5543 5539 5536 5533 5531 5530 5529 5528 5529 5529 5531 5532 5534 5535 5535 5534 5534
5558 5559 5560 5560 5559 5560 5561 5561 5561 5562 5563 5564 5566 5567 5569 5570 5571 5573 5573 5570 5565 5560 5554 5549 5546 5543 5539 5535 5532 5528 5525 5524 5523 5523 5523 5523 5524 5526 5528 5530 5532 5532 5532 5531
5539 5540 5541 5541 5541 5541 5542 5542 5541 5542 5544 5546 5548 5551 5554 5556 5558 5559 5559 5557 5553 5548 5544 5539 5536 5533 5530 5527 5523 5520 5518 5517 5516 5517 5517 5517 5518 5520 5523 5525 5527 5527 5527 5527
5523 5523 5523 5522 5523 5523 5522 5522 5522 5523 5525 5527 5530 5535 5539 5542 5543 5545 5545 5544 5542 5539 5534 5529 5526 5522 5519 5517 5514 5512 5511 5510 5509 5509 5510 5511 5512 5513 5516 5518 5520 5520 5521 5521